This is the latest recevied weather packets stored in our database for station/object CQ0XVC-11. If no packets are shown the sender has not sent any weather packets the latest 1 day(s).
| Time | Temp. | Humidity | Pressure | Rain* | Wind** | Luminosity | Snow |
|---|---|---|---|---|---|---|---|
| 1778006665 | 15.56° C | 40% | 1003.1 hPa | 0 mm | 4.02 m/s, 315° | - | - |
| 1778006417 | 15.56° C | 39% | 1002.9 hPa | 0 mm | 2.24 m/s, 270° | - | - |
| 1778006362 | 15.56° C | 39% | 1002.9 hPa | 0 mm | 2.24 m/s, 270° | - | - |
| 1778006059 | 16.11° C | 39% | 1002.7 hPa | 0 mm | 1.34 m/s, 135° | - | - |
| 1778005789 | 16.11° C | 40% | 1002.8 hPa | 0 mm | 0.45 m/s, 0° | - | - |
| 1778005758 | 16.11° C | 40% | 1002.8 hPa | 0 mm | 0.45 m/s, 0° | - | - |
| 1778005455 | 16.11° C | 39% | 1002.7 hPa | 0 mm | 2.68 m/s, 45° | - | - |
| 1778005153 | 16.11° C | 38% | 1002.8 hPa | 0 mm | 3.13 m/s, 315° | - | - |
| 1778004851 | 16.11° C | 37% | 1002.7 hPa | 0 mm | 1.34 m/s, 337° | - | - |
| 1778004549 | 16.67° C | 37% | 1002.5 hPa | 0 mm | 3.13 m/s, 292° | - | - |
| 1778004278 | 16.67° C | 38% | 1002.6 hPa | 0 mm | 1.79 m/s, 67° | - | - |
| 1778004246 | 16.67° C | 38% | 1002.6 hPa | 0 mm | 1.79 m/s, 67° | - | - |
| 1778003945 | 16.67° C | 38% | 1002.7 hPa | 0 mm | 4.47 m/s, 0° | - | - |
| 1778003690 | 16.67° C | 38% | 1002.7 hPa | 0 mm | 1.79 m/s, 67° | - | - |
| 1778003642 | 16.67° C | 38% | 1002.7 hPa | 0 mm | 1.79 m/s, 67° | - | - |
| 1778003374 | 16.67° C | 38% | 1002.7 hPa | 0 mm | 1.79 m/s, 281° | - | - |
| 1778003340 | 16.67° C | 38% | 1002.7 hPa | 0 mm | 1.79 m/s, 281° | - | - |
| 1778003038 | 16.67° C | 38% | 1002.7 hPa | 0 mm | 1.79 m/s, 78° | - | - |
| 1778002767 | 16.67° C | 37% | 1002.5 hPa | 0 mm | 1.79 m/s, 90° | - | - |
| 1778002736 | 16.67° C | 37% | 1002.5 hPa | 0 mm | 1.79 m/s, 90° | - | - |
| 1778002480 | 16.67° C | 39% | 1002.5 hPa | 0 mm | 3.58 m/s, 270° | - | - |
| 1778002433 | 16.67° C | 39% | 1002.5 hPa | 0 mm | 3.58 m/s, 270° | - | - |
| 1778002132 | 17.22° C | 39% | 1002.5 hPa | 0 mm | 3.13 m/s, 292° | - | - |
| 1778001867 | 17.22° C | 38% | 1002.7 hPa | 0 mm | 0.89 m/s, 247° | - | - |
| 1778001829 | 17.22° C | 38% | 1002.7 hPa | 0 mm | 0.89 m/s, 247° | - | - |
* Rain since midnight (hover to see other rain measurements)
** Current wind speed in m/s (hover to see current wind gust speed)